Austin, TX

2:57 AM CST on January 22, 2017 (GMT -0600)
Austin Bergstrom International

Weather History for KAUS - March, 2012

Change the Weather History Date:

Thursday, March 1, 2012

  Actual Average Record
Temperature  
Mean Temperature 62 °F 55 °F  
Max Temperature 73 °F 68 °F 88 °F (2006)
Min Temperature 50 °F 43 °F 25 °F (1962)
Degree Days  
Heating Degree Days 3 11  
Month to date heating degree days 3 11  
Since 1 July heating degree days 1376 1626  
Cooling Degree Days 0 1  
Month to date cooling degree days 0 1  
Year to date cooling degree days 34 17  
Growing Degree Days 12 (Base 50)    
Moisture  
Dew Point 62 °F    
Average Humidity 93    
Maximum Humidity 100    
Minimum Humidity 86    
Precipitation  
Precipitation T in 0.08 in 0.68 in (1993)
Month to date precipitation T 0.08  
Year to date precipitation 11.16 4.59  
Snow  
Snow 0.00 in - - ()
Month to date snowfall 0.0  
Since 1 July snowfall T  
Snow Depth 0.00 in    
Sea Level Pressure  
Sea Level Pressure 29.83 in    
Wind  
Wind Speed 4 mph (South)    
Max Wind Speed 13 mph    
Max Gust Speed 17 mph    
Visibility 5 miles    
Events      
T = Trace of Precipitation, MM = Missing Value Source: NWS Daily Summary

Daily Weather History Graph

Daily Weather History Graph

Search for Another Location

Airport or City:

Trip Planner

Search our weather history database for the weather conditions in past years. The results will help you decide how hot, cold, wet, or windy it might be!

Date:

Astronomy

Mar. 01, 2012 Rise Set
Actual Time 6:56 AM CST 6:30 PM CST
Civil Twilight 6:32 AM CST 6:54 PM CST
Nautical Twilight 6:04 AM CST 7:21 PM CST
Astronomical Twilight 5:36 AM CST 7:49 PM CST
Moon 12:10 PM CST (3/1) 1:37 AM CST (3/1)
Length of Visible Light 12h 22m
Length of Day
11h 33m
First Quarter, 57% of the Moon is Illuminated
Mar 1
First Quarter
Mar 8
Full
Mar 14
Last Quarter
Mar 22
New
Mar 30
First Quarter

Hourly Weather History & Observations

Time (CST) Temp. Dew Point Humidity Pressure Visibility Wind Dir Wind Speed Gust Speed Precip Events Conditions
12:53 AM 57.9 °F 53.1 °F 84% 29.93 in 10.0 mi Calm Calm - N/A   Partly Cloudy
1:53 AM 53.1 °F 50.0 °F 89% 29.93 in 10.0 mi WSW 4.6 mph - N/A   Partly Cloudy
2:53 AM 52.0 °F 50.0 °F 93% 29.90 in 10.0 mi Calm Calm - N/A   Partly Cloudy
3:53 AM 52.0 °F 48.9 °F 89% 29.90 in 10.0 mi Calm Calm - N/A   Partly Cloudy
4:50 AM 51.8 °F 50.0 °F 94% 29.91 in 10.0 mi Calm Calm - N/A   Mostly Cloudy
4:51 AM 52.0 °F 50.0 °F 93% 29.91 in 10.0 mi Calm Calm - N/A   Mostly Cloudy
5:41 AM 55.4 °F 53.6 °F 94% 29.91 in 10.0 mi Calm Calm - N/A   Overcast
5:53 AM 57.0 °F 53.1 °F 87% 29.90 in 2.0 mi Calm Calm - N/A   Overcast
6:02 AM 57.2 °F 53.6 °F 88% 29.91 in 0.8 mi Calm Calm - N/A   Overcast
6:53 AM 57.0 °F 57.0 °F 100% 29.91 in 0.5 mi Calm Calm - 0.00 in   Light Drizzle
7:53 AM 59.0 °F 59.0 °F 100% 29.92 in 0.8 mi Calm Calm - 0.00 in   Light Drizzle
8:05 AM 59.0 °F 59.0 °F 100% 29.93 in 1.0 mi Calm Calm - 0.00 in   Light Drizzle
8:12 AM 60.8 °F 59.0 °F 94% 29.93 in 0.8 mi Calm Calm - 0.00 in   Light Drizzle
8:53 AM 61.0 °F 60.1 °F 97% 29.93 in 0.8 mi Calm Calm - 0.00 in   Overcast
9:53 AM 63.0 °F 62.1 °F 97% 29.92 in 0.8 mi Calm Calm - N/A   Overcast
10:11 AM 64.4 °F 62.6 °F 94% 29.92 in 1.0 mi Calm Calm - N/A   Overcast
10:53 AM 66.9 °F 64.0 °F 90% 29.90 in 2.0 mi Calm Calm - N/A   Overcast
11:19 AM 66.2 °F 64.4 °F 94% 29.91 in 2.5 mi SE 3.5 mph - N/A   Overcast
11:53 AM 69.8 °F 66.2 °F 88% 29.89 in 2.5 mi SSW 4.6 mph - N/A   Overcast
12:53 PM 70.0 °F 66.9 °F 90% 29.85 in 2.5 mi South 5.8 mph - N/A   Overcast
1:11 PM 71.6 °F 66.2 °F 83% 29.84 in 2.5 mi South 5.8 mph - N/A   Overcast
1:31 PM 71.6 °F 66.2 °F 83% 29.82 in 3.0 mi South 9.2 mph - N/A   Overcast
1:53 PM 71.1 °F 68.0 °F 90% 29.79 in 5.0 mi South 8.1 mph - N/A   Overcast
2:53 PM 71.1 °F 68.0 °F 90% 29.78 in 4.0 mi South 5.8 mph - N/A   Overcast
3:53 PM 71.1 °F 68.0 °F 90% 29.75 in 2.0 mi South 8.1 mph - N/A   Overcast
4:53 PM 72.0 °F 69.1 °F 91% 29.73 in 2.0 mi South 6.9 mph - N/A   Overcast
5:04 PM 73.4 °F 69.8 °F 88% 29.74 in 4.0 mi South 4.6 mph - N/A   Overcast
5:44 PM 71.6 °F 69.8 °F 94% 29.74 in 5.0 mi South 5.8 mph - N/A   Mostly Cloudy
5:53 PM 72.0 °F 69.1 °F 91% 29.72 in 5.0 mi South 4.6 mph - N/A   Mostly Cloudy
6:53 PM 71.1 °F 68.0 °F 90% 29.71 in 6.0 mi Calm Calm - N/A   Overcast
7:53 PM 68.0 °F 66.9 °F 96% 29.70 in 6.0 mi South 3.5 mph - N/A   Mostly Cloudy
8:14 PM 69.8 °F 68.0 °F 94% 29.72 in 5.0 mi SSW 3.5 mph - N/A   Overcast
8:53 PM 68.0 °F 66.9 °F 96% 29.72 in 5.0 mi South 4.6 mph - N/A   Overcast
9:15 PM 69.8 °F 68.0 °F 94% 29.73 in 6.0 mi South 9.2 mph - N/A   Mostly Cloudy
9:53 PM 70.0 °F 68.0 °F 93% 29.71 in 7.0 mi South 9.2 mph - N/A   Mostly Cloudy
10:53 PM 70.0 °F 66.9 °F 90% 29.69 in 8.0 mi South 9.2 mph - N/A   Mostly Cloudy
11:53 PM 69.1 °F 66.9 °F 93% 29.68 in 8.0 mi South 9.2 mph - N/A   Mostly Cloudy